Starlink 6053

operational
NORAD ID: 56466 Int'l Des: 2023-064 Owner: SPXS Country: US Constellation: starlink
LEOCIRCULAR

About Starlink 6053

Description loading...

Live Position

Loading 3D Globe...

Upcoming Passes

Altitude History

Altitude vs Time

uPlot chart will show altitude changes over time

Two-Line Element Set

1 56466U 23064U 25348.86654864 .00000295 00000-0 32513-4 0 9995
2 56466 70.0003 358.1932 0003063 272.3465 87.7344 14.98330268142544
Epoch: Dec 14, 2025 • Age: 13 hours

Current Status

Altitude 585.7 km
Velocity 7.57 km/s
Sub-Earth Point 70.10°N, 148.22°W
Launch Date May 10, 2023
Age 2.5 years
Type internet

Technical Details

Classification Payload
Mass 305.00 kg
Dry Mass 290.00 kg
Total Mass 305.00 kg
Length 0.20 m
Diameter 2.80 m
Span 9.00 m
Shape Box + pan
Manufacturer SPXS
Bus Type Starlink
Phase Status In Orbit
Owner/State SPXS/US

Large Constellations

Loading constellations...